User: anonymous   Login
Location: Cincinnati Observatory Center
(39.1389°N, 84.4225°W)
Time: 08:18:52
(UTC-05:00)
Language:

COSMOS 2428 - Orbit

View from above orbital plane
View from above orbital plane
View from above satellite
View from above satellite

Ground track
Ground track

The orbit data is extracted from the following two-line orbital elements,

1 31792U 07029A   17327.13738992  .00000355  00000-0  21838-3 0  9990
2 31792  70.9373  78.5146 0006671  23.3200 336.8222 14.12385359536511
Epoch (UTC): 23 November 2017 03:17:50
Eccentricity: 0.0006671
inclination: 70.9373°
perigee height: 846 km
apogee height: 856 km
right ascension of ascending node: 78.5146°
argument of perigee: 23.3200°
revolutions per day: 14.12385359
mean anomaly at epoch: 336.8222°
orbit number at epoch: 53651

The dashed part of the orbit path shows where the satellite is in the earth's shadow,  

DLR